Regional Weather Roundup
Issued by NWS

Home | Current Version | Previous Version | Graphics & Text | Print | Product List | Glossary On
Versions: 1 2 3 4 5 6 7 8 9 10 11 12 13 14 15 16 17 18 19 20 21 22 23 24 25 26 27 28 29 30 31 32 33 34 35 36 37 38 39 40 41 42 43 44 45 46 47 48 49 50
161
ASUS44 KMEG 202310
RWRTN
TENNESSEE HOURLY STATE WEATHER ROUNDUP
NATIONAL WEATHER SERVICE MEMPHIS TN
500 PM CST MON NOV 20 2017

TNZ002-004-019-021-049-052-054-088>092-210000-
WEST TENNESSEE

CITY           SKY/WX    TMP DP  RH WIND       PRES   REMARKS
MEMPHIS INTL   PTCLDY    49  26  41 S5        30.08F
NWS MEMPHIS      N/A     51 N/A N/A MISG        N/A
JACKSON        CLEAR     49  26  41 S5        30.08F
DYERSBURG      CLEAR     51  26  37 S3          N/A
SOMERVILLE     CLEAR     52  21  30 S5        30.07S
COVINGTON      CLEAR     50  25  37 CALM      30.08S
UNION CITY     CLEAR     45  27  49 S7        30.06F
BOLIVAR        CLEAR     48  25  40 SE5       30.08S
PARIS          CLEAR     45  23  42 S5        30.06S
HUNTINGDON     CLEAR     46  23  39 S5        30.06F
LEXINGTON      CLEAR     50  27  40 SW3       30.08F
SELMER         CLEAR     45  32  61 CALM      30.08F
SAVANNAH       CLEAR     46  32  57 CALM      30.09S
$$

TNZ008-025-027-028-033-062-065-066-210000-
NORTH MIDDLE TENNESSEE

CITY           SKY/WX    TMP DP  RH WIND       PRES   REMARKS
NASHVILLE      MOCLDY    49  24  37 CALM      30.10F
PORTLAND       CLEAR     46  25  42 S3        30.09S
CLARKSVILLE    CLEAR     47  22  37 SE6       30.07F
SMYRNA         CLEAR     47  26  44 CALM      30.11F
COOKEVILLE     CLEAR     39  30  70 CALM      30.10S
GALLATIN       CLEAR     46  25  42 CALM      30.12F
CROSSVILLE     CLOUDY    45  21  38 S3        30.12F
$$

TNZ061-075-076-078-094-096-097-210000-
SOUTH MIDDLE TENNESSEE

CITY           SKY/WX    TMP DP  RH WIND       PRES   REMARKS
FAYETTEVILLE   CLEAR     48  23  37 S6        30.09F
TULLAHOMA      CLEAR     48  27  43 CALM      30.09F
WINCHESTER     CLEAR     50  19  29 S3        30.11F
MCMINNVILLE    CLEAR     46  30  53 CALM      30.10S
COLUMBIA       CLEAR     50  18  27 CALM      30.07F
SHELBYVILLE    CLEAR     52  19  28 CALM      30.10S
$$

TNZ017-018-042-046-047-210000-
NORTHEAST TENNESSEE

CITY           SKY/WX    TMP DP  RH WIND       PRES   REMARKS
TRI CITIES     CLOUDY    41  25  53 N3        30.15S
ELIZABETHTON   CLEAR     39  28  65 CALM      30.16R
$$

TNZ012-013-036-069-073-074-210000-
CENTRAL EAST TENNESSEE

CITY           SKY/WX    TMP DP  RH WIND       PRES   REMARKS
KNOXVILLE      CLOUDY    47  31  53 NE5       30.13F
OAK RIDGE      CLEAR     43  31  62 CALM      30.16F
DOWNTOWN KNOXV CLEAR     45  36  70 CALM      30.15F
GATLINBURG     CLEAR     43  32  65 CALM      30.14F
MORRISTOWN     CLEAR     45  21  39 CALM      30.14F
JACKSBORO      CLEAR     41  28  60 CALM      30.18S
$$

TNZ083-085-099-210000-
SOUTHEAST TENNESSEE

CITY           SKY/WX    TMP DP  RH WIND       PRES   REMARKS
CHATTANOOGA    CLOUDY    49  31  49 CALM      30.14F
DAYTON         CLEAR     45  36  70 CALM      30.13F
$$

SKY/WX REPORTED AS FAIR MEANS FEW OR NO CLOUDS BELOW
12 THOUSAND FEET.





USA.gov is the U.S. government's official web portal to all federal, state and local government web resources and services.